Regional Weather Roundup
Issued by NWS Charleston, SC

Current Version | Previous Version | Graphics & Text | Print | Product List | Glossary On
Versions: 1 2 3 4 5 6 7 8 9 10 11 12 13 14 15 16 17 18 19 20 21 22 23 24 25 26 27 28 29 30 31 32 33 34 35 36 37 38 39 40 41 42 43 44 45 46 47 48 49 50
000 ASUS42 KCHS 030127 RWRCHS REGIONAL WEATHER ROUNDUP NATIONAL WEATHER SERVICE CHARLESTON SC 900 PM EDT TUE JUN 02 2015 NOTE: "FAIR" INDICATES FEW OR NO CLOUDS BELOW 12,000 FEET WITH NO SIGNIFICANT WEATHER AND/OR OBSTRUCTIONS TO VISIBILITY. NOT ALL STATIONS ARE QUALITY CONTROLLED BY THE NATIONAL WEATHER SERVICE. USE DATA WITH CAUTION...ESPECIALLY DEWPOINT OBSERVATIONS. SCZ027-030-031-034>040-042>050-030200- ...SOUTHEAST SOUTH CAROLINA... CITY SKY/WX TMP DP RH WIND PRES REMARKS N CHARLESTON CLOUDY 77 70 79 S9 29.94F WATERFRONT PAR N/A 79 72 79 S7 29.92F MOUNT PLEASANT FAIR 79 72 78 S7 29.95S JOHNS ISLAND PTCLDY 79 72 78 S8 29.95S PINOPOLIS N/A 75 66 73 CALM 29.88R MONCKS CORNER FAIR 72 66 83 CALM 29.95R SUMMERVILLE FAIR 72 72 100 S5 29.96S BEAUFORT MCAS CLOUDY 75 72 90 S5 29.95S BEAUFORT ARPT FAIR 77 72 83 S3 29.95S HILTON HEAD IS N/A N/A N/A N/A MISG N/A WALTERBORO CLOUDY 70 68 94 NW3 29.97R ALLENDALE N/A 70 68 94 CALM 29.98R THUNDER ...SOUTHERN MIDLANDS AND PEE DEE... CITY SKY/WX TMP DP RH WIND PRES REMARKS GEORGETOWN NOT AVBL KINGSTREE NOT AVBL ORANGEBURG CLOUDY 68 64 87 CALM 29.96F BARNWELL DRIZZLE 72 70 94 SE7 29.98R AIKEN CLOUDY 73 63 68 SE9 29.99R MANNING FAIR 72 64 78 CALM 29.95S COLUMBIA TSTM 73 69 87 NE6 29.96R FOG SUMTER CLOUDY 73 67 80 E3 29.94R FLORENCE CLOUDY 73 69 87 NE7 29.98R MYRTLE BEACH PTCLDY 79 68 69 SW6 29.99R N MYRTLE BEACH CLOUDY 78 70 76 S7 29.97S $$ GAZ063-065-086>088-099>101-113>116-118-119-134>141-150-030200- ...SOUTHEAST GEORGIA... CITY SKY/WX TMP DP RH WIND PRES REMARKS SAVANNAH ARPT CLOUDY 73 70 90 S7 29.95F HUNTER AAF CLOUDY 73 73 100 SW5 29.94R FORT STEWART CLOUDY 74 68 80 S5 29.95R STATESBORO CLOUDY 72 72 99 S3 29.96R SYLVANIA CLOUDY 73 70 92 CALM 29.99R CLAXTON FAIR 72 70 94 CALM 29.97R ...CSRA...CENTRAL AND FAR SOUTHEAST GEORGIA... CITY SKY/WX TMP DP RH WIND PRES REMARKS THOMSON CLOUDY 77 72 83 CALM 29.99R AUGUSTA-BUSH CLOUDY 71 65 81 SE6 29.95R THUNDER AUGUSTA-DANIEL CLOUDY 74 64 71 SE10 29.96R THUNDER SWAINSBORO MOCLDY N/A N/A N/A CALM 29.96R VIDALIA LGT RAIN 70 68 94 SW6 29.96S EASTMAN FAIR 76 70 81 S7 29.98R HAZLEHURST FAIR 73 71 94 S5 29.96R ALMA CLOUDY 70 68 93 N3 29.97R WAYCROSS CLOUDY 75 72 92 SE5 29.97R JESUP FAIR 73 70 88 CALM 29.97R BAXLEY LGT RAIN 72 70 94 CALM 29.98R BRUNSWICK CLOUDY 70 68 94 W6 29.97S SAINT SIMONS NOT AVBL $$ SCZ027-028-034-036>038-045-046-048>050-GAZ119-141-030200- ...LAKE AND SUPPLEMENTAL COASTAL OBSERVATIONS... STATION/POSITION TIME TEMP WIND PRES WAVE SWELL AIR SEA DIR/SP/G HT/PER HT/PER/DIR (UTC) (F) (DEG/KT/KT) (MB) (FT/S) (FT/S/D) UPR LAKE MARION NOT AVBL WINYAH BAY 0000 78 180/ 9 1013.0 LAKE MURRAY 0000 74 70/ 6/ 11 1013.5R ACE BASIN NERRS NOT AVBL FORT PULASKI 0100 79 81 180/ 4/ 7 1015.0R SAPELO ISLAND 0100 74 220/ 6 1014.0S $$ ANZ835-935-AMZ111-154-330-350-352-354-370-450-454-472-030200- ...C-MAN AND BUOY OBSERVATIONS... STATION/POSITION TIME TEMP WIND PRES WAVE SWELL AIR SEA DIR/SP/G HT/PER HT/PER/DIR (UTC) (F) (DEG/KT/KT) (MB) (FT/S) (FT/S/D) BUOY 41004 0050 79 81 180/ 8/ 8 1014.5R 2/ 9 2/ 9 BUOY 41008 0050 78 79 180/ 10/ 12 1014.4R 2/ 9 2/120/ 9 FOLLY BEACH CMAN 0100 78 180/ 11/ 12 1014.3F CAPERS NEARSHORE 0008 79 200/ 12/ 16 1014.4F FRIPP NEARSHORE 0000 79 180/ 8/ 10 1014.0F STATION/POSITION TIME TEMP WIND PRES WAVE SWELL AIR SEA DIR/SP/G HT/PER HT/PER/DIR (UTC) (F) (DEG/KT/KT) (MB) (FT/S) (FT/S/D) 5E ST. MARYS GA 0021 81 N/A 3/ 8 FRYING PAN BUOY 0050 80 78 160/ 8/ 10 1015.7R 2/ 8 2/100/ 8 BUOY 41025 0050 78 81 230/ 6/ 8 1015.7R 3/ 8 2/100/ 8 CAPE LOOKOUT NC 0100 77 150/ 7/ 7 1015.2F BUOY 41002 0050 78 78 160/ 6/ 8 1016.6R 3/ 8 3/120/ 8 BUOY 41010 0050 79 81 150/ 10/ 12 1015.2R 3/ 8 3/ 70/ 8 ST AUGUSTINE FL 0100 72 76 250/ 6/ 9 1016.2R $$

USA.gov is the U.S. government's official web portal to all federal, state and local government web resources and services.